Regional Weather Roundup
Issued by NWS Goodland, KS

Home | Current Version | Previous Version | Text Only | Print | Product List | Glossary On
Versions: 1 2 3 4 5 6 7 8 9 10 11 12 13 14 15 16 17 18 19 20 21 22 23 24 25 26 27 28 29 30 31 32 33 34 35 36 37 38 39 40 41 42 43 44 45 46 47 48 49 50
000
ASUS43 KGLD 200808
RWRGLD

GOODLAND FORECAST AREA HOURLY WEATHER ROUNDUP
NATIONAL WEATHER SERVICE GOODLAND KS
200 AM MDT SAT SEP 20 2014

...OFFICIAL OBSERVATIONS...

CITY           SKY/WX    TMP DP  RH WIND       PRES   REMARKS
GOODLAND KS    MOCLDY    67  61  81 S13       29.95F
HILL CITY KS   CLEAR     70  59  68 W5        29.93S
IMPERIAL NEB   CLOUDY    67  58  72 W7        29.91R
MCCOOK NEB     PTCLDY    68  61  78 S6        29.89F
AKRON CO       PTCLDY    63  52  67 SW7       30.02R
BURLINGTON CO  PTCLDY    63  58  83 SW9       30.00F
LIMON CO       CLEAR     57  49  74 SW6       30.09R
$$

...UNOFFICIAL OBSERVATIONS...

CITY           SKY/WX    TMP DP  RH WIND       PRES   REMARKS
COLBY KS       CLEAR     68  64  88 S9        29.96F
GOVE KS          N/A     69  32  25 MISG        N/A
NORTON KS      CLEAR     70  57  64 S10       29.90F
SHARON SPRINGS   N/A     64  61  90 S10         N/A
TRIBUNE KS     CLEAR     66  64  94 S10       30.00F
WAKEENEY KS      N/A     68  56  65 MISG        N/A
TRENTON NEB      N/A     69  32  25 SW7         N/A
KIT CARSON CO    N/A     64  58  82 CALM        N/A
YUMA CO          N/A     64  52  66 W14         N/A
$$


USA.gov is the U.S. government's official web portal to all federal, state and local government web resources and services.